Location: Haieshausen
(51.8387°N, 9.9720°E)
Time: 04:21:38
(UTC+00:00)

Lacrosse 5 - Pass Details

Date: 14 July 2020
Orbit: 717 x 720 km, 57.0° (Epoch: 09 August)

Event Time Altitude Azimuth Distance (km) Brightness Sun altitude
Exits shadow 01:49:49 - 264° (W) 3,147 4.8 -10.1°
Rises 01:49:53 0° 264° (W) 3,122 4.8 -10.1°
Reaches altitude 10° 01:52:19 10° 270° (W) 2,203 4.1 -9.9°
Maximum altitude 01:57:17 53° 347° (NNW) 885 2.6 -9.4°
Drops below altitude 10° 02:02:16 10° 64° (ENE) 2,207 5.5 -9.0°
Sets 02:04:42 0° 70° (ENE) 3,128 6.2 -8.8°
